Location: Invercargill
(46.4000°S, 168.3500°E)
Time: 10:20:59
(UTC+12:00)

CZ-2C R/B - Pass Details

Date: 14 May 2021
Orbit: 705 x 907 km, 98.0° (Epoch: 15 June)

Event Time Altitude Azimuth Distance (km) Brightness Sun altitude
Exits shadow 18:59:04 22° 132° (SE) 1,554 4.1 -16.1°
Maximum altitude 19:01:23 34° 84° (E) 1,181 3.5 -16.5°
Drops below altitude 10° 19:05:43 10° 19° (NNE) 2,185 5.3 -17.3°
Sets 19:08:09 0° 10° (N) 3,101 6.1 -17.7°
